Back to catalog

STARLINK-3891

AliveCommunicationsVLEO
NORAD 52650·PAYLOAD·🇺🇸 United States

Launched May 14, 2022 from Cape Canaveral Space Force Station

Loading…

Next Passes (next 24 hours)

TLE

FreshSource: CelesTrak SupGP

Epoch: Sep 14, 2026, 13:47 UTC

1 52650C 22052BE  26257.57479167  .00026595  00000+0  78582-3 0  2573
2 52650  53.1597 111.0939 0001361  89.5140 120.5844 15.34374905    18

Track STARLINK-3891 in real time with AllMySat

Download on the App Store